Tracking 27112 objects as of 27-Mar-2023
HD Live streaming from Space Station
objects crossing your sky now

SL-12 R/B(2)

Track SL-12 R/B(2) now!


NORAD ID: 26855
Int'l Code: 2001-025C
Perigee: 7,526.1 km
Apogee: 35,833.8 km
Inclination: 14.6 °
Period: 779.3 minutes
Semi major axis: 28050 km
RCS: 1.9952 m2 (large)
Launch date: June 16, 2001
Source: Commonwealth of Independent States (former USSR) (CIS)
Launch site: TYURATAM MISSILE AND SPACE COMPLEX (TTMTR)

Note: This is a ROCKET BODY
Your satellite tracking list
Your tracking list is empty




NASA's NSSDC Master Catalog

Two Line Element Set (TLE):
1 26855U 01025C   23085.03075609 -.00000047  00000-0  00000-0 0  9994
2 26855  14.5896 228.2733 5045779  41.3470  78.7521  1.84791461146983
Source of the keplerian elements: AFSPC